Flag for Montserrat Weather past 2 weeks in Brades, Montserrat

Now
84 °F

Passing clouds.


Feels Like: 90 °F
Forecast: N/A
Wind: 13 mph from East

Location: Vc Bird International Antigua Airport

Current Time: Aug 1, 2015 at 5:23:09 PM

Latest Report: Aug 1, 2015 at 5:00 PM


Visibility: N/A

Pressure: 29.95 "Hg

Humidity: 66%

Dew point: 72 °F

Location of BradesLocation

Historic Weather in Brades — Graph

°F

Brades temperature yesterday

Maximum temperature yesterday: 86 °F (at 10:00 AM)
Minimum temperature yesterday: 79 °F (at 3:00 AM)
Average temperature yesterday: 83 °F

Past Weeks' High & Low Weather Summary

 TemperatureHumidityPressure
High88 °F (Jul 24, 1:00 PM)94% (Jul 20, 4:00 PM)30.12 "Hg (Jul 20, 4:00 PM)
Low75 °F (Jul 22, 8:00 AM)55% (Aug 1, 1:00 PM)29.95 "Hg (Aug 1, 3:00 PM)
Average82 °F73%30.03 "Hg
* Reported Jul 17 4:00 PM — Aug 1 4:00 PM, Brades, Weather by CustomWeather, © 2015

Note: Actual official high and low records may vary slightly from our data, if they occured in-between our weather recording intervals... More about our weather records

Advertising

Brades weather history for previous 24 hours

 ConditionsComfort  
Time TempWeatherWind HumidityBarometerVisibility
4:00 PM
Sat, Aug 1
86 °FScattered clouds.15 mph59%29.95 "HgN/A
3:00 PM86 °FPassing clouds.13 mph62%29.95 "HgN/A
2:00 PM86 °FPassing clouds.15 mph62%29.98 "HgN/A
1:00 PM88 °FPassing clouds.14 mph55%29.98 "HgN/A
12:00 PM86 °FPassing clouds.14 mph62%30.01 "HgN/A
11:00 AM88 °FPassing clouds.13 mph59%30.01 "HgN/A
10:00 AM86 °FPassing clouds.14 mph59%30.04 "HgN/A
9:00 AM84 °FScattered clouds.12 mph66%30.01 "HgN/A
8:00 AM84 °FScattered clouds.12 mph66%30.01 "HgN/A
7:00 AM82 °FPassing clouds.12 mph70%30.01 "HgN/A
6:00 AM81 °FPassing clouds.10 mph74%30.01 "HgN/A
5:00 AM79 °FPassing clouds.10 mph79%30.01 "HgN/A
4:00 AM81 °FPassing clouds.10 mph74%30.01 "HgN/A
3:00 AM81 °FPassing clouds.10 mph74%30.01 "HgN/A
2:00 AM81 °FPassing clouds.12 mph74%30.01 "HgN/A
1:00 AM81 °FPassing clouds.12 mph74%30.01 "HgN/A
12:00 AM81 °FPassing clouds.10 mph74%30.04 "HgN/A
11:00 PM
Fri, Jul 31
81 °FPassing clouds.10 mph74%30.04 "HgN/A
10:00 PM81 °FPassing clouds.12 mph74%30.04 "HgN/A
9:00 PM82 °FPassing clouds.13 mph74%30.04 "HgN/A
8:00 PM82 °FPassing clouds.12 mph74%30.04 "HgN/A
7:00 PM82 °FPassing clouds.9 mph74%30.01 "HgN/A
6:00 PM84 °FScattered clouds.10 mph70%30.01 "HgN/A
5:00 PM84 °FScattered clouds.13 mph66%30.01 "HgN/A
Weather by CustomWeather, © 2015

See weather overviewHow to use our weather pages